This is the latest recevied weather packets stored in our database for station/object SY3EBK-13. If no packets are shown the sender has not sent any weather packets the latest 10 day(s).
| Time | Temp. | Humidity | Pressure | Rain* | Wind** | Luminosity | Snow |
|---|---|---|---|---|---|---|---|
| 1777705829 | 7.78° C | 63% | 914 hPa | - | 0 m/s | - | - |
| 1777704929 | 7.78° C | 62% | 914 hPa | - | 0 m/s | - | - |
| 1777704029 | 7.78° C | 62% | 913.8 hPa | - | 0 m/s | - | - |
| 1777703129 | 7.22° C | 63% | 913.8 hPa | - | 0 m/s | - | - |
| 1777702229 | 6.67° C | 64% | 913.6 hPa | - | 0 m/s | - | - |
| 1777701329 | 6.11° C | 65% | 913.5 hPa | - | 0 m/s | - | - |
| 1777700429 | 6.11° C | 68% | 913.4 hPa | - | 0 m/s | - | - |
| 1777699529 | 5.56° C | 71% | 913.4 hPa | - | 0 m/s | - | - |
| 1777698629 | 5.56° C | 68% | 913.3 hPa | - | 0 m/s | - | - |
| 1777697729 | 5.56° C | 67% | 913.3 hPa | - | 0 m/s | - | - |
| 1777696829 | 5.56° C | 69% | 913.1 hPa | - | 0 m/s | - | - |
| 1777695929 | 5.56° C | 68% | 913.4 hPa | - | 0 m/s | - | - |
| 1777695029 | 5.56° C | 69% | 913.4 hPa | - | 0 m/s | - | - |
| 1777694129 | 5° C | 75% | 913.4 hPa | - | 0 m/s | - | - |
| 1777693229 | 5° C | 75% | 913.4 hPa | - | 0 m/s | - | - |
| 1777692329 | 5° C | 75% | 913.3 hPa | - | 0 m/s | - | - |
| 1777691429 | 5.56° C | 75% | 913.1 hPa | - | 0 m/s | - | - |
| 1777690529 | 5.56° C | 75% | 913.2 hPa | - | 0 m/s | - | - |
| 1777689629 | 5.56° C | 74% | 913.4 hPa | - | 0 m/s | - | - |
| 1777688729 | 5.56° C | 73% | 913.4 hPa | - | 0 m/s | - | - |
| 1777687829 | 5.56° C | 72% | 913.4 hPa | - | 0 m/s | - | - |
| 1777674329 | 6.11° C | 72% | 914.7 hPa | - | 0 m/s | - | - |
| 1777669829 | 6.67° C | 74% | 914.8 hPa | - | 0 m/s | - | - |
| 1777668929 | 6.11° C | 75% | 914.9 hPa | - | 0 m/s | - | - |
| 1777667129 | 6.11° C | 75% | 914.9 hPa | - | 0 m/s | - | - |
* Rain since midnight (hover to see other rain measurements)
** Current wind speed in m/s (hover to see current wind gust speed)